Time,TemperatureF,DewpointF,PressureIn,WindDirection,WindDirectionDegrees,WindSpeedMPH,WindSpeedGustMPH,Humidity,HourlyPrecipIn,Conditions,Clouds,dailyrainin,SolarRadiationWatts/m^2,SoftwareType,DateUTC
2014-10-21 00:05:00,58.5,53.4,29.13,North,32767,0.0,0.0,83,0.00,,,0.00,0,Wunderground v.1.15,2014-10-21 04:05:00,
2014-10-21 00:11:00,58.6,53.5,29.12,North,32767,0.0,0.0,83,0.00,,,0.00,0,Wunderground v.1.15,2014-10-21 04:11:00,
2014-10-21 00:16:00,58.7,53.2,29.11,North,32767,0.0,0.0,82,0.00,,,0.00,0,Wunderground v.1.15,2014-10-21 04:16:00,
2014-10-21 00:21:00,58.8,53.3,29.12,North,32767,0.0,0.0,82,0.00,,,0.00,0,Wunderground v.1.15,2014-10-21 04:21:00,
2014-10-21 00:27:00,58.8,53.0,29.11,North,32767,0.0,0.0,81,0.00,,,0.00,0,Wunderground v.1.15,2014-10-21 04:27:00,
2014-10-21 00:32:00,58.8,53.3,29.11,North,32767,0.0,0.0,82,0.00,,,0.00,0,Wunderground v.1.15,2014-10-21 04:32:00,
2014-10-21 00:38:00,58.8,53.6,29.10,North,32767,0.0,0.0,83,0.00,,,0.00,0,Wunderground v.1.15,2014-10-21 04:38:00,
2014-10-21 00:43:00,58.7,53.5,29.11,North,32767,0.0,0.0,83,0.00,,,0.00,0,Wunderground v.1.15,2014-10-21 04:43:00,
2014-10-21 00:48:00,58.7,53.2,29.11,North,32767,0.0,0.0,82,0.00,,,0.00,0,Wunderground v.1.15,2014-10-21 04:48:00,
2014-10-21 00:54:00,58.6,53.5,29.10,North,32767,0.0,0.0,83,0.00,,,0.00,0,Wunderground v.1.15,2014-10-21 04:54:00,
2014-10-21 00:59:00,58.6,53.5,29.11,North,32767,0.0,0.0,83,0.00,,,0.00,0,Wunderground v.1.15,2014-10-21 04:59:00,
2014-10-21 01:05:00,58.5,53.4,29.11,North,32767,0.0,0.0,83,0.00,,,0.00,0,Wunderground v.1.15,2014-10-21 05:05:00,
2014-10-21 01:10:00,58.3,53.2,29.10,North,32767,0.0,0.0,83,0.00,,,0.00,0,Wunderground v.1.15,2014-10-21 05:10:00,
2014-10-21 01:15:00,58.2,53.1,29.10,North,32767,0.0,0.0,83,0.00,,,0.00,0,Wunderground v.1.15,2014-10-21 05:15:00,
2014-10-21 01:20:00,58.0,53.2,29.11,North,32767,0.0,0.0,84,0.00,,,0.00,0,Wunderground v.1.15,2014-10-21 05:20:00,
2014-10-21 01:26:00,57.9,53.4,29.09,North,32767,0.0,0.0,85,0.00,,,0.00,0,Wunderground v.1.15,2014-10-21 05:26:00,
2014-10-21 01:31:00,57.7,53.2,29.10,North,32767,0.0,0.0,85,0.00,,,0.00,0,Wunderground v.1.15,2014-10-21 05:31:00,
2014-10-21 01:37:00,57.6,52.8,29.10,North,32767,0.0,0.0,84,0.00,,,0.00,0,Wunderground v.1.15,2014-10-21 05:37:00,
2014-10-21 01:42:00,57.3,52.5,29.09,North,32767,0.0,0.0,84,0.00,,,0.00,0,Wunderground v.1.15,2014-10-21 05:42:00,
2014-10-21 01:47:00,57.1,52.6,29.10,North,32767,0.0,0.0,85,0.00,,,0.00,0,Wunderground v.1.15,2014-10-21 05:47:00,
2014-10-21 01:52:00,56.9,52.4,29.10,North,32767,0.0,0.0,85,0.00,,,0.00,0,Wunderground v.1.15,2014-10-21 05:52:00,
2014-10-21 01:57:00,56.7,52.2,29.09,North,32767,0.0,0.0,85,0.00,,,0.00,0,Wunderground v.1.15,2014-10-21 05:57:00,
2014-10-21 02:03:00,56.5,52.0,29.09,North,32767,0.0,0.0,85,0.00,,,0.00,0,Wunderground v.1.15,2014-10-21 06:03:00,
2014-10-21 02:08:00,56.1,51.7,29.10,North,32767,0.0,0.0,85,0.00,,,0.00,0,Wunderground v.1.15,2014-10-21 06:08:00,
2014-10-21 02:13:00,55.7,51.6,29.09,North,32767,0.0,0.0,86,0.00,,,0.00,0,Wunderground v.1.15,2014-10-21 06:13:00,
2014-10-21 02:18:00,55.7,51.9,29.09,North,32767,0.0,0.0,87,0.00,,,0.00,0,Wunderground v.1.15,2014-10-21 06:18:00,
2014-10-21 02:24:00,55.6,51.8,29.09,North,32767,0.0,0.0,87,0.00,,,0.00,0,Wunderground v.1.15,2014-10-21 06:24:00,
2014-10-21 02:30:00,55.4,51.6,29.09,North,32767,0.0,0.0,87,0.00,,,0.00,0,Wunderground v.1.15,2014-10-21 06:30:00,
2014-10-21 02:36:00,55.3,51.5,29.09,North,32767,0.0,0.0,87,0.00,,,0.00,0,Wunderground v.1.15,2014-10-21 06:36:00,
2014-10-21 02:41:00,55.0,51.2,29.09,North,32767,0.0,0.0,87,0.00,,,0.00,0,Wunderground v.1.15,2014-10-21 06:41:00,
2014-10-21 02:47:00,54.8,51.0,29.08,North,32767,0.0,0.0,87,0.00,,,0.00,0,Wunderground v.1.15,2014-10-21 06:47:00,
2014-10-21 02:53:00,54.2,50.4,29.09,North,32767,0.0,0.0,87,0.00,,,0.00,0,Wunderground v.1.15,2014-10-21 06:53:00,
2014-10-21 02:58:00,53.9,50.4,29.09,North,32767,0.0,0.0,88,0.00,,,0.00,0,Wunderground v.1.15,2014-10-21 06:58:00,
2014-10-21 03:03:00,53.6,50.4,29.09,North,32767,0.0,0.0,89,0.00,,,0.00,0,Wunderground v.1.15,2014-10-21 07:03:00,
2014-10-21 03:08:00,53.4,50.5,29.08,North,32767,0.0,0.0,90,0.00,,,0.00,0,Wunderground v.1.15,2014-10-21 07:08:00,
2014-10-21 03:14:00,53.2,50.3,29.09,North,32767,0.0,0.0,90,0.00,,,0.00,0,Wunderground v.1.15,2014-10-21 07:14:00,
2014-10-21 03:19:00,52.9,50.0,29.08,North,32767,0.0,0.0,90,0.00,,,0.00,0,Wunderground v.1.15,2014-10-21 07:19:00,
2014-10-21 03:25:00,52.6,49.8,29.09,North,32767,0.0,0.0,90,0.00,,,0.00,0,Wunderground v.1.15,2014-10-21 07:25:00,
2014-10-21 03:30:00,52.5,49.9,29.08,North,32767,0.0,0.0,91,0.00,,,0.00,0,Wunderground v.1.15,2014-10-21 07:30:00,
2014-10-21 03:35:00,52.6,50.0,29.07,North,32767,0.0,0.0,91,0.00,,,0.00,0,Wunderground v.1.15,2014-10-21 07:35:00,
2014-10-21 03:40:00,52.6,50.3,29.07,North,32767,0.0,0.0,92,0.00,,,0.00,0,Wunderground v.1.15,2014-10-21 07:40:00,
2014-10-21 03:47:00,52.8,50.5,29.08,North,32767,0.0,0.0,92,0.00,,,0.00,0,Wunderground v.1.15,2014-10-21 07:47:00,
2014-10-21 03:52:00,52.8,50.5,29.07,North,32767,0.0,0.0,92,0.00,,,0.00,0,Wunderground v.1.15,2014-10-21 07:52:00,
2014-10-21 03:58:00,52.6,50.0,29.08,North,32767,0.0,0.0,91,0.00,,,0.00,0,Wunderground v.1.15,2014-10-21 07:58:00,
2014-10-21 04:04:00,52.3,49.8,29.07,North,32767,0.0,0.0,91,0.00,,,0.00,0,Wunderground v.1.15,2014-10-21 08:04:00,
2014-10-21 04:10:00,52.3,50.0,29.06,North,32767,0.0,0.0,92,0.00,,,0.00,0,Wunderground v.1.15,2014-10-21 08:10:00,
2014-10-21 04:15:00,52.1,49.8,29.07,North,32767,0.0,0.0,92,0.00,,,0.00,0,Wunderground v.1.15,2014-10-21 08:15:00,
2014-10-21 04:21:00,51.9,49.6,29.07,North,32767,0.0,0.0,92,0.00,,,0.00,0,Wunderground v.1.15,2014-10-21 08:21:00,
2014-10-21 04:26:00,52.0,50.0,29.06,North,32767,0.0,0.0,93,0.00,,,0.00,0,Wunderground v.1.15,2014-10-21 08:26:00,
2014-10-21 04:32:00,52.0,49.7,29.07,North,32767,0.0,0.0,92,0.00,,,0.00,0,Wunderground v.1.15,2014-10-21 08:32:00,
2014-10-21 04:38:00,51.7,49.5,29.07,North,32767,0.0,0.0,92,0.00,,,0.00,0,Wunderground v.1.15,2014-10-21 08:38:00,
2014-10-21 04:43:00,51.4,49.2,29.06,North,32767,0.0,0.0,92,0.00,,,0.00,0,Wunderground v.1.15,2014-10-21 08:43:00,
2014-10-21 04:50:00,51.2,49.0,29.07,North,32767,0.0,0.0,92,0.00,,,0.00,0,Wunderground v.1.15,2014-10-21 08:50:00,
2014-10-21 04:55:00,51.0,49.0,29.07,North,32767,0.0,0.0,93,0.00,,,0.00,0,Wunderground v.1.15,2014-10-21 08:55:00,
2014-10-21 05:01:00,50.9,48.9,29.06,North,32767,0.0,0.0,93,0.00,,,0.00,0,Wunderground v.1.15,2014-10-21 09:01:00,
2014-10-21 05:06:00,51.0,49.0,29.07,North,32767,0.0,0.0,93,0.00,,,0.00,0,Wunderground v.1.15,2014-10-21 09:06:00,
2014-10-21 05:13:00,51.1,49.4,29.07,North,32767,0.0,0.0,94,0.00,,,0.00,0,Wunderground v.1.15,2014-10-21 09:13:00,
2014-10-21 05:18:00,51.0,49.3,29.08,North,32767,0.0,0.0,94,0.00,,,0.00,0,Wunderground v.1.15,2014-10-21 09:18:00,
2014-10-21 05:23:00,50.8,49.1,29.08,North,32767,0.0,0.0,94,0.00,,,0.00,0,Wunderground v.1.15,2014-10-21 09:23:00,
2014-10-21 05:29:00,50.7,49.0,29.07,North,32767,0.0,0.0,94,0.00,,,0.00,0,Wunderground v.1.15,2014-10-21 09:29:00,
2014-10-21 05:34:00,50.7,49.0,29.07,North,32767,0.0,0.0,94,0.00,,,0.00,0,Wunderground v.1.15,2014-10-21 09:34:00,
2014-10-21 05:39:00,50.6,48.9,29.08,North,32767,0.0,0.0,94,0.00,,,0.00,0,Wunderground v.1.15,2014-10-21 09:39:00,
2014-10-21 05:44:00,50.5,48.8,29.06,North,32767,0.0,0.0,94,0.00,,,0.00,0,Wunderground v.1.15,2014-10-21 09:44:00,
2014-10-21 05:49:00,50.6,48.9,29.07,North,32767,0.0,0.0,94,0.00,,,0.00,0,Wunderground v.1.15,2014-10-21 09:49:00,